{"data":{"norad_id":61773,"intl_designator":"2024-199AQ","name":"SITRO-AIS 47","alt_names":[],"object_type":"PAYLOAD","status":"ACTIVE","operator":null,"country":"CIS","launch_date":"2024-11-04","launch_site_code":"VOSTO","launch_vehicle":null,"mission":null,"orbit_class":"UNKNOWN","rcs_meters":null,"size_class":null,"mass_kg":null,"dimensions":null,"purposes":[],"wikipedia_slug":null,"has_3d_model":false,"image_url":null,"decayed_at":null,"tle_current":{"epoch":"2026-09-22T21:48:13.746816Z","epoch_age_seconds":93953,"freshness":"FRESH","line1":"1 61773U 24199AQ  26265.90849244  .00067275  00000+0  56433-3 0  9990","line2":"2 61773  97.2706 145.0705 0001914 274.7355  85.3689 15.69733381149714","mean_motion":15.69733381,"eccentricity":0.0001914,"inclination_deg":97.2706,"raan_deg":145.0705,"arg_perigee_deg":274.7355,"mean_anomaly_deg":85.3689,"bstar":0.00056433,"rev_number":14971,"period_min":91.735323809107,"perigee_km":358.37022946214,"apogee_km":360.94945809394,"semimajor_km":6737.796843778,"source":"CELESTRAK","updated_at":"2026-09-23T09:00:21.034619Z"}}}